Stations météo

Publicité
Beauvais, France (7055): Température de l'air & dewpoint: 03.04.2020 12:00:00 - 09.04.2020 12:00:00 (CEST)Beauvais, France (7055): Température de l'air 5cm: 03.04.2020 12:00:00 - 09.04.2020 12:00:00 (CEST)Beauvais, France (7055): Température de l'air -20cm & Température de l'air -100cm: 03.04.2020 12:00:00 - 09.04.2020 12:00:00 (CEST)Beauvais, France (7055): Vitesse du vent & gusts: 03.04.2020 12:00:00 - 09.04.2020 12:00:00 (CEST)Beauvais, France (7055): Direction du vent: 03.04.2020 12:00:00 - 09.04.2020 12:00:00 (CEST)Beauvais, France (7055): reduced air pressure: 03.04.2020 12:00:00 - 09.04.2020 12:00:00 (CEST)Beauvais, France (7055): visibility: 03.04.2020 12:00:00 - 09.04.2020 12:00:00 (CEST)Beauvais, France (7055): Ensoleillement: 03.04.2020 12:00:00 - 09.04.2020 12:00:00 (CEST)Beauvais, France (7055): Quantités de précipitations: 03.04.2020 12:00:00 - 09.04.2020 12:00:00 (CEST)
Date & Time tt [°C] td [°C] tt 5cm [°C] tt -20cm [°C] tt -100cm [°C] ff [km/h] ff [knt] fx [km/h] fx [knt] dd ppp [hPa] vv [km] sd [min] rr [mm]
09.04.2020 12:00:00 20,3 11,2 30,4 10,1 9,4 6 3 11 6 E 1024,2 9 60 0,0
09.04.2020 11:00:00 18,2 10,8 28,5 10,1 9,4 4 2 10 5 NE 1024,3 7 60 0,0
09.04.2020 10:00:00 14,8 10,2 21,0 10,1 9,4 2 1 6 4 SW 1024,1 6 60 0,0
09.04.2020 09:00:00 9,4 8,5 6,2 10,1 9,4 5 3 9 5 NW 1024,0 7 60 0,0
09.04.2020 08:00:00 5,0 4,1 0,8 10,2 9,4 6 3 9 5 NW 1023,6 6 8 0,0
09.04.2020 07:00:00 4,2 2,5 0,7 10,2 9,4 7 4 8 5 NNW 1023,2 9 0 0,0
09.04.2020 06:00:00 5,8 4,3 1,2 10,2 9,4 4 2 12 7 WNW 1023,2 12 0 0,0
09.04.2020 05:00:00 5,8 3,8 2,3 10,2 9,4 10 6 13 7 NW 1023,0 14 0 0,0
09.04.2020 04:00:00 7,5 5,3 2,9 10,2 9,4 12 7 14 7 NW 1023,0 17 0 0,0
09.04.2020 03:00:00 7,4 5,0 3,3 10,2 9,4 9 5 14 7 WNW 1023,3 17 0 0,0
09.04.2020 02:00:00 7,9 5,5 2,8 10,2 9,4 12 6 21 11 NNW 1023,4 18 0 0,0
09.04.2020 01:00:00 8,0 5,3 3,9 10,1 9,4 9 5 11 6 NNW 1023,4 20 0 0,0
09.04.2020 00:00:00 9,3 5,1 4,4 10,1 9,3 5 3 8 4 WNW 1023,4 26 0 0,0
08.04.2020 23:00:00 11,3 6,4 5,2 10,1 9,4 3 2 7 4 NW 1023,1 24 0 0,0
08.04.2020 22:00:00 13,0 6,6 8,1 10,0 9,3 8 5 13 7 NNE 1022,8 28 0 0,0
08.04.2020 21:00:00 14,8 6,9 10,0 9,9 9,3 11 6 13 7 NNE 1022,4 36 0 0,0
08.04.2020 20:00:00 19,3 7,1 14,9 9,8 9,3 10 5 12 7 N 1021,8 44 0 0,0
08.04.2020 19:00:00 21,6 7,8 21,9 9,7 9,3 11 6 19 10 NNE 1021,8 49 32 0,0
08.04.2020 18:00:00 23,2 5,1 26,6 9,6 9,3 6 4 17 9 ENE 1021,7 18 60 0,0
08.04.2020 17:00:00 23,5 2,9 24,0 9,6 9,3 7 4 19 11 E 1022,0 18 32 0,0
08.04.2020 16:00:00 22,4 5,3 23,9 9,5 9,3 9 5 16 9 ENE 1022,3 45 28 0,0
08.04.2020 15:00:00 24,1 7,3 34,2 9,5 9,2 5 3 13 7 SSE 1022,6 17 60 0,0
08.04.2020 14:00:00 22,9 8,6 34,6 9,5 9,3 4 2 13 7 ENE 1023,1 29 60 0,0
08.04.2020 13:00:00 20,3 8,3 31,3 9,5 9,2 4 2 12 6 NE 1023,5 19 60 0,0
08.04.2020 12:00:00 18,6 8,5 27,1 9,5 9,3 4 2 11 6 SE 1024,1 17 60 0,0
08.04.2020 11:00:00 16,1 8,3 21,3 9,6 9,2 5 3 9 5 ESE 1024,4 19 60 0,0
08.04.2020 10:00:00 12,2 9,9 17,2 9,6 9,2 3 1 5 3 SSE 1024,7 9 29 0,0
08.04.2020 09:00:00 10,8 10,5 5,8 9,6 9,2 0 0 4 2 N 1024,7 8 60 0,0
08.04.2020 08:00:00 4,1 3,5 -0,5 9,6 9,2 2 1 6 3 NW 1024,9 6 6 0,0
08.04.2020 07:00:00 3,0 2,3 -0,7 9,7 9,2 3 1 5 3 NW 1024,9 6 0 0,0
08.04.2020 06:00:00 3,5 2,5 -0,2 9,7 9,2 4 2 7 4 NW 1024,8 7 0 0,0
08.04.2020 05:00:00 4,6 3,6 -0,4 9,7 9,2 6 3 10 6 NW 1025,0 8 0 0,0
08.04.2020 04:00:00 5,3 4,3 1,2 9,7 9,2 8 5 14 8 NW 1025,2 12 0 0,0
08.04.2020 03:00:00 5,8 4,4 1,4 9,6 9,2 9 5 12 7 NW 1025,4 12 0 0,0
08.04.2020 02:00:00 6,1 4,6 2,4 9,6 9,2 11 6 14 7 NW 1026,0 14 0 0,0
08.04.2020 01:00:00 6,7 4,9 2,6 9,6 9,2 6 3 10 6 NNW 1026,2 13 0 0,0
08.04.2020 00:00:00 8,6 6,4 4,2 9,5 9,2 8 4 9 5 N 1026,2 19 0 0,0
07.04.2020 23:00:00 10,0 6,7 5,5 9,5 9,2 4 2 5 3 N 1026,3 24 0 0,0
07.04.2020 22:00:00 12,5 8,6 7,0 9,4 9,2 4 2 18 10 ENE 1026,0 27 0 0,0
07.04.2020 21:00:00 13,9 9,3 11,0 9,3 9,2 15 8 16 9 NE 1025,8 33 0 0,0
07.04.2020 20:00:00 17,1 10,5 15,8 9,2 9,2 13 7 21 11 NE 1025,3 35 0 0,0
07.04.2020 19:00:00 19,3 10,8 19,6 9,1 9,1 16 9 28 15 NE 1025,3 20 27 0,0
07.04.2020 18:00:00 20,3 11,0 20,7 9,1 9,2 13 7 29 16 ENE 1025,6 38 21 0,0
07.04.2020 17:00:00 20,6 11,2 24,2 9,0 9,1 17 9 29 16 ENE 1026,1 19 47 0,0
07.04.2020 16:00:00 19,6 10,8 22,6 9,0 9,1 16 8 29 16 E 1026,9 20 37 0,0
07.04.2020 15:00:00 19,3 10,3 22,3 9,0 9,1 17 9 30 16 E 1027,4 19 32 0,0
07.04.2020 14:00:00 17,4 10,0 21,4 9,0 9,1 18 10 27 14 E 1028,1 33 25 0,0
07.04.2020 13:00:00 16,4 10,0 20,8 9,0 9,1 16 9 27 15 E 1028,9 28 13 0,0
07.04.2020 12:00:00 15,7 9,4 21,0 9,0 9,1 13 7 21 11 ENE 1029,4 20 52 0,0
07.04.2020 11:00:00 13,3 7,7 18,4 9,0 9,1 14 7 19 10 NE 1029,9 20 60 0,0
07.04.2020 10:00:00 8,5 8,4 9,9 9,1 9,1 4 2 7 4 NW 1030,3 20 28 0,0
07.04.2020 09:00:00 5,9 5,8 4,0 9,1 9,1 4 2 11 6 NNW 1030,4 18 53 0,0
07.04.2020 08:00:00 3,5 3,2 -0,1 9,1 9,1 6 3 11 6 NW 1030,1 12 4 0,0
07.04.2020 07:00:00 2,7 2,4 -1,0 9,1 9,1 5 3 12 7 WNW 1029,6 7 0 0,0
07.04.2020 06:00:00 2,8 2,4 -0,6 9,1 9,1 8 5 13 7 NNW 1029,4 7 0 0,0
07.04.2020 05:00:00 3,5 3,2 -0,6 9,1 9,1 4 2 9 5 W 1029,4 0,3 0 0,0
07.04.2020 04:00:00 3,4 3,0 0,0 9,1 9,1 6 3 12 7 WNW 1029,1 4,0 0 0,0
07.04.2020 03:00:00 4,2 3,8 0,2 9,1 9,1 7 4 9 5 N 1029,1 0,8 0 0,0
07.04.2020 02:00:00 5,1 4,4 0,7 9,1 9,1 8 5 11 6 N 1028,6 1,2 0 0,0
07.04.2020 01:00:00 6,9 6,2 3,1 9,1 9,1 9 5 11 6 NNE 1028,1 4,6 0 0,0
07.04.2020 00:00:00 8,8 7,9 5,2 9,1 9,1 4 2 9 5 N 1027,5 2,7 0 0,0
06.04.2020 23:00:00 10,8 10,2 7,5 9,1 9,1 6 3 13 7 N 1027,0 10 0 0,0
06.04.2020 22:00:00 9,9 8,8 6,1 9,0 9,0 5 3 7 4 N 1026,6 10 0 0,0
06.04.2020 21:00:00 10,9 8,5 6,0 9,0 9,1 4 2 11 6 SSW 1025,4 12 0 0,0
06.04.2020 20:00:00 12,8 9,8 11,9 8,9 9,1 8 4 14 8 SW 1024,3 27 18 0,0
06.04.2020 19:00:00 13,9 10,7 15,8 8,9 9,0 9 5 18 10 S 1023,8 29 28 0,0
06.04.2020 18:00:00 13,5 11,0 13,9 8,9 9,0 9 5 14 8 S 1023,2 19 6 0,0
06.04.2020 17:00:00 13,0 11,1 13,8 8,9 9,0 11 6 26 14 S 1023,0 20 1 0,0
06.04.2020 16:00:00 12,0 9,9 12,6 8,9 9,0 20 11 28 15 SSW 1022,8 23 0 0,0
06.04.2020 15:00:00 11,6 9,3 11,4 8,9 9,0 16 9 26 14 SSW 1022,4 19 0 0,4
06.04.2020 14:00:00 11,0 8,2 10,9 8,9 9,0 17 9 29 16 SSW 1022,0 9 0 0,6
06.04.2020 13:00:00 12,3 5,2 11,9 8,9 9,0 16 9 33 18 SSW 1020,7 20 0 0,0
06.04.2020 12:00:00 13,9 2,5 13,8 8,9 9,0 21 11 39 21 SW 1019,7 54 0 0,0
06.04.2020 11:00:00 15,3 3,4 17,0 8,9 9,0 20 11 32 18 SSW 1018,7 41 11 0,0
06.04.2020 10:00:00 13,7 2,9 15,8 8,9 9,0 17 9 25 13 S 1017,9 47 51 0,0
06.04.2020 09:00:00 11,9 3,4 8,9 9,0 9,0 13 7 19 10 S 1017,5 41 60 0,0
06.04.2020 08:00:00 9,2 1,8 2,0 9,0 9,0 11 6 17 9 SSE 1016,8 41 2 0,0
06.04.2020 07:00:00 8,0 0,2 3,4 9,0 9,0 13 7 17 9 SE 1016,0 60 0 0,0
06.04.2020 06:00:00 10,5 1,3 -0,3 9,0 9,0 10 5 21 11 SSW 1015,4 60 0 0,0
06.04.2020 05:00:00 6,1 0,8 -1,2 9,1 9,0 5 3 11 6 SSE 1015,2 56 0 0,0
06.04.2020 04:00:00 5,9 0,2 0,1 9,0 9,0 10 5 15 8 ESE 1015,1 4,8 0 0,0
06.04.2020 03:00:00 7,5 0,5 0,7 9,0 9,0 9 5 18 10 ESE 1014,9 57 0 0,0
06.04.2020 02:00:00 8,3 0,5 0,9 9,0 9,0 9 5 13 7 ESE 1014,8 58 0 0,0
06.04.2020 01:00:00 9,4 1,3 1,4 9,0 9,0 9 5 14 8 E 1014,8 60 0 0,0
06.04.2020 00:00:00 9,8 1,4 1,3 8,9 9,0 6 4 14 8 E 1014,6 60 0 0,0
05.04.2020 23:00:00 9,9 1,8 2,1 8,9 9,0 9 5 15 8 ESE 1014,5 60 0 0,0
05.04.2020 22:00:00 12,2 2,3 3,5 8,8 9,0 11 6 13 7 ESE 1014,3 60 0 0,0
05.04.2020 21:00:00 13,3 2,2 5,7 8,7 8,9 10 5 21 12 ESE 1014,1 60 0 0,0
05.04.2020 20:00:00 16,5 3,2 13,8 8,6 8,9 13 7 31 17 SE 1013,8 60 29 0,0
05.04.2020 19:00:00 19,8 5,1 20,7 8,5 8,9 18 10 38 20 SE 1013,9 43 60 0,0
05.04.2020 18:00:00 20,9 4,0 23,4 8,5 8,9 24 13 45 24 SSE 1014,2 20 60 0,0
05.04.2020 17:00:00 21,1 4,2 25,0 8,4 8,9 23 13 39 21 SSE 1014,5 19 60 0,0
05.04.2020 16:00:00 21,3 5,2 27,1 8,4 8,9 25 13 37 20 S 1015,2 43 60 0,0
05.04.2020 15:00:00 20,9 4,0 26,9 8,4 8,9 24 13 38 20 SSE 1015,4 20 60 0,0
05.04.2020 14:00:00 19,5 4,4 26,2 8,4 8,9 16 9 27 14 SE 1016,2 11 60 0,0
05.04.2020 13:00:00 17,4 4,0 24,2 8,4 8,9 18 10 27 15 SE 1016,8 20 60 0,0
05.04.2020 12:00:00 15,2 4,8 21,8 8,4 8,9 15 8 23 12 ESE 1017,6 19 60 0,0
05.04.2020 11:00:00 12,1 4,1 16,4 8,5 8,9 11 6 25 13 ESE 1018,4 19 60 0,0
05.04.2020 10:00:00 9,5 3,5 13,8 8,5 8,9 15 8 24 13 ESE 1018,8 20 60 0,0
05.04.2020 09:00:00 7,8 3,8 0,5 8,6 8,9 5 3 8 4 ESE 1019,0 18 60 0,0
05.04.2020 08:00:00 2,4 0,0 -5,1 8,6 8,9 0 0 6 3 N 1018,9 33 0 0,0
05.04.2020 07:00:00 1,6 -0,8 -5,2 8,7 8,9 4 2 13 7 SE 1018,6 37 0 0,0
05.04.2020 06:00:00 2,1 -0,8 -4,0 8,7 8,9 11 6 13 7 E 1018,4 40 0 0,0
05.04.2020 05:00:00 3,3 0,2 -3,8 8,7 8,9 8 4 10 5 E 1018,6 44 0 0,0
05.04.2020 04:00:00 4,1 0,2 -3,5 8,7 8,9 6 3 10 5 E 1019,3 47 0 0,0
05.04.2020 03:00:00 5,1 1,0 -2,8 8,7 8,9 6 3 9 5 E 1019,6 47 0 0,0
05.04.2020 02:00:00 3,8 0,7 -2,4 8,7 8,9 3 2 14 8 E 1020,3 49 0 0,0
05.04.2020 01:00:00 3,4 0,3 -1,9 8,7 8,9 13 7 15 8 E 1020,4 48 0 0,0
05.04.2020 00:00:00 5,5 0,8 -1,7 8,6 8,9 13 7 14 7 E 1020,4 49 0 0,0
04.04.2020 23:00:00 6,7 2,6 -0,8 8,6 8,9 7 4 17 9 E 1020,4 45 0 0,0
04.04.2020 22:00:00 6,9 1,6 0,4 8,5 8,9 8 5 14 8 E 1020,4 52 0 0,0
04.04.2020 21:00:00 9,1 1,7 3,7 8,4 8,9 14 8 21 11 E 1020,3 54 0 0,0
04.04.2020 20:00:00 11,9 2,6 9,9 8,4 8,9 14 8 28 15 ESE 1019,9 59 21 0,0
04.04.2020 19:00:00 15,3 2,4 16,5 8,3 8,9 18 10 29 16 SE 1019,9 47 60 0,0
04.04.2020 18:00:00 16,4 2,8 19,8 8,2 8,9 16 9 30 16 S 1019,8 45 60 0,0
04.04.2020 17:00:00 16,7 1,9 21,4 8,1 8,8 22 12 36 19 SE 1020,0 19 60 0,0
04.04.2020 16:00:00 17,0 2,9 23,5 8,1 8,9 18 10 37 20 SE 1020,4 20 60 0,0
04.04.2020 15:00:00 16,9 4,9 17,2 8,1 8,9 13 7 31 17 SSE 1020,9 18 35 0,0
04.04.2020 14:00:00 14,1 3,8 16,6 8,1 8,9 19 10 29 16 SE 1021,4 15 34 0,0
04.04.2020 13:00:00 14,9 5,4 22,6 8,1 8,8 6 3 20 11 SSW 1022,0 20 52 0,0
04.04.2020 12:00:00 13,4 6,9 20,5 8,2 8,8 5 3 16 9 SE 1022,7 20 60 0,0
04.04.2020 11:00:00 10,2 5,8 18,5 8,2 8,8 6 4 15 8 ESE 1022,8 18 60 0,0
04.04.2020 10:00:00 8,0 6,6 14,5 8,2 8,8 5 3 10 5 E 1022,7 14 60 0,0
04.04.2020 09:00:00 2,3 2,0 -1,0 8,3 8,8 4 2 6 3 NW 1022,9 12 58 0,0
04.04.2020 08:00:00 -0,7 -1,3 -5,2 8,3 8,9 0 0 9 5 N 1022,6 11 0 0,0
04.04.2020 07:00:00 -0,2 -0,8 -5,1 8,3 8,8 5 3 7 4 NW 1022,3 8 0 0,0
04.04.2020 06:00:00 0,6 0,0 -4,0 8,3 8,8 6 3 10 5 WNW 1022,0 7 0 0,0
04.04.2020 05:00:00 -0,2 -0,9 -3,6 8,4 8,8 9 5 10 6 WNW 1022,0 8 0 0,0
04.04.2020 04:00:00 0,9 0,0 -3,1 8,3 8,8 7 4 10 5 WNW 1021,9 11 0 0,0
04.04.2020 03:00:00 1,4 0,4 -2,7 8,3 8,8 10 5 11 6 NW 1021,9 10 0 0,0
04.04.2020 02:00:00 2,0 0,5 -1,8 8,3 8,8 8 4 11 6 WNW 1022,0 19 0 0,0
04.04.2020 01:00:00 4,2 2,7 -0,9 8,3 8,8 5 3 11 6 NW 1021,9 20 0 0,0
04.04.2020 00:00:00 4,8 2,5 0,6 8,2 8,8 10 6 14 8 NNW 1021,6 20 0 0,0
03.04.2020 23:00:00 7,5 5,3 2,4 8,2 8,8 6 3 10 5 NW 1021,1 26 0 0,0
03.04.2020 22:00:00 7,2 4,0 3,1 8,1 8,8 8 5 12 6 NW 1020,8 32 0 0,0
03.04.2020 21:00:00 8,9 5,3 6,1 8,1 8,8 8 5 15 8 NNW 1020,2 43 0 0,0
03.04.2020 20:00:00 10,6 5,6 9,5 8,0 8,8 11 6 18 10 NW 1019,7 47 0 0,0
03.04.2020 19:00:00 11,9 5,1 12,2 8,0 8,8 11 6 16 9 WNW 1019,5 38 0 0,0
03.04.2020 18:00:00 12,2 5,4 13,6 7,9 8,8 10 5 19 10 NW 1019,2 43 0 0,0
03.04.2020 17:00:00 12,2 5,1 13,9 7,8 8,8 12 7 23 13 NNW 1019,1 20 0 0,0
03.04.2020 16:00:00 12,9 4,6 17,5 7,8 8,8 11 6 24 13 NW 1019,1 44 0 0,0
03.04.2020 15:00:00 13,1 3,2 14,5 7,8 8,8 11 6 23 12 WNW 1019,1 47 0 0,0
03.04.2020 14:00:00 12,3 4,5 15,0 7,8 8,8 8 5 14 8 NNW 1019,1 41 2 0,0
03.04.2020 13:00:00 12,3 4,3 16,9 7,8 8,8 3 2 12 7 NNW 1019,0 20 14 0,0
03.04.2020 12:00:00 12,0 5,2 20,0 7,7 8,8 4 2 18 10 E 1019,0 19 42 0,0

tt = Température de l'air
td = dewpoint
tt 5cm = Température de l'air 5cm
tt -20cm = Température de l'air -20cm
tt -100cm = Température de l'air -100cm
ff = Vitesse du vent
fx = gusts
dd = Direction du vent
ppp = reduced air pressure
vv = visibility
sd = Ensoleillement
rr = Quantités de précipitations

stations d'obs. à proximité